Weather in Komsomolskiy

Russia / Astrakhan Oblast     46°51′23″N   47°56′16″E
temp.,
°C
wind,
m/s
gust,
m/s
humid.,
%
clouds,
%
prec.,
mm/h
press.,
hPa
HPBL,
m
27 july, tue
tue2701:00+26ene61223100 0.0 1018399
04:00+24ese4102659 0.0 1018346
07:00+24e5102589 0.0 1019472
10:00+29e71020100 0.0 10181593
13:00+30ene672091 0.0 10182386
16:00+31ene4618100 0.0 10162752
19:00+29nne3422100 0.0 1016235
22:00+26wsw3427100 0.0 101670
28 july, wed
wed2801:00+24wnw51036100 0.0 1016337
04:00+24wnw71246100 0.0 1016440
07:00+23w585497 0.0 1016370
10:00+28nnw3432100 0.0 1016900
13:00+32nne4419100 0.0 10143227
16:00+33nne342011 0.0 10133373
19:00+32n342162 0.0 10132349
22:00+27n332852 0.0 101420
29 july, thu
thu2901:00+25nnw113387 0.0 101411
04:00+24ene22330 0.0 101311
07:00+27ssw01320 0.0 101437
10:00+32ene13215 0.0 10142602
13:00+34ne32175 0.0 10133301
16:00+35ne241627 0.0 10123504
19:00+32sse88235 0.0 10121200
22:00+26s510415 0.0 1013246
30 july, fri
fri3001:00+24ssw48520 0.0 1013149
04:00+23sw34440 0.0 101263
07:00+25ssw35380 0.0 1013158
10:00+31sw43220 0.0 10131035
13:00+35sw33170 0.0 10122825
16:00+36sw44140 0.0 10103131
19:00+34wsw34170 0.0 1010928
22:00+27s49290 0.0 1011156
31 july, sat
sat3101:00+24ssw33360 0.0 101017
04:00+23ssw33400 0.0 101023
07:00+25sw22410 0.0 101169
10:00+33e11220 0.0 1011906
13:00+37ene45140 0.0 10093189
16:00+39se75110 0.0 10083990
19:00+35se78150 0.0 10091132
22:00+27sse59290 0.0 1010131